Location: Capel Gartheli
(52.1833°N, 4.0667°W)
Time: 04:37:55
(UTC+00:00)

Cosmos 1862 - Pass Details

Date: 18 February 2020
Orbit: 538 x 557 km, 82.5° (Epoch: 29 March)

Event Time Altitude Azimuth Distance (km) Brightness Sun altitude
Rises 06:20:40 0° 345° (NNW) 2,711 6.7 -10.8°
Reaches altitude 10° 06:22:52 10° 341° (NNW) 1,812 5.7 -10.4°
Maximum altitude 06:26:45 54° 264° (W) 662 3.4 -9.8°
Drops below altitude 10° 06:30:36 10° 187° (S) 1,797 6.0 -9.2°
Sets 06:32:46 0° 183° (S) 2,684 6.9 -8.9°
